Latest Weather Observations for Giles*

IDW60801

Issued at 5:05 pm WST Friday 24 October 2014 (issued every 30 minutes, with the page automatically refreshed every 10 minutes)

About weather observations | Map of weather stations | Latest weather observations for WA | Other Formats
Station Details ID: 013017 Name: GILES METEOROLOGICAL OFFICE Lat: -25.03 Lon: 128.30 Height: 598.0 m
Data from the previous 72 hours. | See also: Recent months at Giles*

* Giles observations are collected in the South Australia time zone, which includes daylight saving in the summer period. Therefore, Rain since 9am value is with respect to South Australia local time.

Date/Time
WST
Temp
°C
App
Temp
°C
Dew
Point
Rel
Hum
%
Delta-T
°C
Wind Press
QNH
hPa
Press
MSL
hPa
Rain
since 9 am
mm
Dir
 
Spd
km/h
Gust
km/h
Spd
kts
Gust
kts
24/05:00pm 35.7 32.7 1.7 12 17.8 W 7 13 4 7 1014.5 - 0.0
24/04:30pm 36.1 31.8 -4.4 7 19.3 WSW 9 13 5 7 1014.3 - 0.0
24/04:00pm 36.2 33.0 0.5 10 18.4 WSW 7 13 4 7 1014.1 - 0.0
24/03:30pm 36.4 31.3 -5.1 7 19.6 SSW 13 20 7 11 1014.0 1010.6 0.0
24/03:00pm 36.5 32.3 -3.6 7 19.4 NW 9 17 5 9 1014.1 - 0.0
24/02:30pm 36.3 32.8 -3.2 8 19.2 S 6 9 3 5 1014.2 - 0.0
24/02:00pm 36.7 30.6 -7.2 6 20.1 NW 17 32 9 17 1014.3 - 0.0
24/01:30pm 37.3 30.9 -6.8 6 20.4 N 19 22 10 12 1014.5 - 0.0
24/01:00pm 36.7 31.8 -3.5 7 19.5 NNW 13 22 7 12 1014.8 - 0.0
24/12:30pm 36.8 32.2 -3.7 7 19.6 N 11 15 6 8 1015.2 1011.8 0.0
24/12:00pm 36.0 31.4 -4.2 7 19.2 NW 11 17 6 9 1015.7 - 0.0
24/11:30am 37.2 32.0 -2.9 8 19.7 N 15 32 8 17 1016.0 - 0.0
24/11:00am 35.9 31.6 -1.9 9 18.7 N 11 17 6 9 1016.5 - 0.0
24/10:30am 36.6 30.8 -4.5 7 19.6 N 17 24 9 13 1016.8 - 0.0
24/09:00am 35.4 31.8 0.4 11 17.9 ESE 9 15 5 8 1017.9 - 0.0
24/08:30am 34.1 29.3 0.4 12 17.1 ENE 15 20 8 11 1018.0 - 0.0
24/08:00am 32.8 27.2 0.0 12 16.4 E 19 28 10 15 1018.0 - 0.0
24/07:30am 31.5 26.0 0.5 13 15.5 E 19 26 10 14 1017.8 - 0.0
24/07:00am 30.4 25.0 1.1 15 14.7 E 19 26 10 14 1017.6 - 0.0
24/06:30am 29.5 23.9 0.9 16 14.2 E 20 30 11 16 1017.4 1014.0 0.0
24/06:00am 26.9 21.3 1.3 19 12.6 E 20 26 11 14 1017.1 - 0.0
24/05:30am 25.6 20.7 2.2 22 11.6 E 17 20 9 11 1016.9 - 0.0
24/05:00am 25.0 20.2 2.4 23 11.2 E 17 20 9 11 1016.7 - 0.0
24/04:30am 25.2 20.4 2.8 23 11.2 E 17 20 9 11 1016.5 - 0.0
24/04:00am 25.3 20.9 2.6 23 11.3 E 15 19 8 10 1016.3 - 0.0
24/03:30am 25.7 21.3 2.7 22 11.5 ESE 15 20 8 11 1016.0 1012.6 0.0
24/03:00am 26.7 21.5 2.3 20 12.2 E 19 26 10 14 1015.8 - 0.0
24/02:30am 26.6 21.8 2.5 21 12.1 E 17 24 9 13 1015.8 - 0.0
24/02:00am 26.5 21.6 2.3 21 12.1 E 17 24 9 13 1015.8 - 0.0
24/01:30am 26.5 21.3 2.6 21 12.0 E 19 22 10 12 1016.1 - 0.0
24/01:00am 26.2 21.5 3.0 22 11.7 E 17 20 9 11 1016.3 - 0.0
24/12:30am 26.0 21.2 2.6 22 11.7 E 17 22 9 12 1016.6 1013.2 0.0
24/12:00am 25.8 21.3 2.2 21 11.7 E 15 19 8 10 1017.1 - 0.0
 
Date/Time
WST
Temp
°C
App
Temp
°C
Dew
Point
Rel
Hum
%
Delta-T
°C
Wind Press
QNH
hPa
Press
MSL
hPa
Rain
since 9 am
mm
Dir
 
Spd
km/h
Gust
km/h
Spd
kts
Gust
kts
23/11:30pm 25.7 21.7 2.7 22 11.5 ESE 13 15 7 8 1017.5 - 0.0
23/11:00pm 26.0 21.5 2.3 21 11.8 E 15 17 8 9 1017.7 - 0.0
23/10:30pm 26.1 21.7 2.8 22 11.7 ESE 15 17 8 9 1018.1 - 0.0
23/10:00pm 27.2 23.2 2.6 20 12.4 SE 13 15 7 8 1018.5 - 0.0
23/09:30pm 28.3 24.1 1.7 18 13.3 SSE 13 17 7 9 1018.5 1015.2 0.0
23/09:00pm 28.6 24.6 0.8 16 13.7 S 11 17 6 9 1018.4 - 0.0
23/08:30pm 29.6 24.6 -1.4 13 14.8 S 15 19 8 10 1018.1 - 0.0
23/08:00pm 30.0 25.8 -0.7 13 14.9 SSW 11 15 6 8 1017.7 - 0.0
23/07:30pm 30.5 25.4 -1.7 12 15.4 S 15 24 8 13 1016.9 - 0.0
23/07:00pm 31.1 25.2 -2.3 11 15.9 S 19 26 10 14 1016.4 - 0.0
23/06:30pm 31.5 26.7 -2.2 11 16.1 S 13 20 7 11 1016.0 1012.6 0.0
23/06:00pm 32.4 26.2 -3.5 10 16.9 SSW 20 28 11 15 1015.4 - 0.0
23/05:30pm 33.1 27.4 -3.9 9 17.4 SSW 17 26 9 14 1014.9 - 0.0
23/05:00pm 35.3 30.2 -5.5 7 19.0 N 13 19 7 10 1014.1 - 0.0
23/04:30pm 35.9 29.6 -10.1 5 20.0 N 17 24 9 13 1013.6 - 0.0
23/04:00pm 36.3 30.4 -10.6 4 20.3 NNW 15 20 8 11 1013.5 - 0.0
23/03:30pm 36.6 30.4 -9.1 5 20.3 NNW 17 24 9 13 1013.5 1010.1 0.0
23/03:00pm 36.6 29.2 -11.7 4 20.6 NNW 22 33 12 18 1013.4 - 0.0
23/02:30pm 36.9 29.2 -11.9 4 20.8 NW 24 30 13 16 1013.4 - 0.0
23/02:16pm 37.0 28.5 -12.3 4 20.9 N 28 46 15 25 1013.3 - 0.0
23/02:00pm 38.2 30.5 -11.1 4 21.5 NW 24 32 13 17 1013.4 - 0.0
23/01:30pm 37.0 29.0 -10.4 4 20.7 N 26 35 14 19 1013.6 - 0.0
23/01:00pm 37.1 28.2 -11.7 4 20.9 N 30 35 16 19 1013.7 - 0.0
23/12:30pm 37.3 27.6 -10.6 4 20.9 N 35 41 19 22 1014.1 1010.7 0.0
23/12:15pm 37.3 27.8 -12.6 4 21.1 N 33 52 18 28 1014.3 - 0.0
23/12:00pm 37.1 27.8 -12.8 4 21.0 N 32 44 17 24 1014.4 - 0.0
23/11:31am 37.7 28.3 -11.2 4 21.2 N 33 52 18 28 1014.7 - 0.0
23/11:30am 37.8 28.6 -10.7 4 21.2 N 32 41 17 22 1014.8 - 0.0
23/11:00am 36.7 27.5 -10.4 4 20.5 N 32 44 17 24 1015.1 - 0.0
23/10:48am 36.3 27.9 -9.9 5 20.2 N 28 50 15 27 1015.2 - 0.0
23/10:30am 35.9 25.8 -10.2 5 20.0 N 37 48 20 26 1015.3 - 0.0
23/10:00am 35.2 25.5 -10.4 5 19.6 N 35 52 19 28 1015.7 - 0.0
23/09:30am 35.0 25.8 -8.9 5 19.3 NNE 33 46 18 25 1016.0 1012.6 0.0
23/09:00am 33.8 24.1 -9.8 5 18.7 N 35 50 19 27 1016.0 - 0.0
23/08:30am 32.6 23.6 -8.3 7 17.8 N 32 37 17 20 1016.0 - 0.0
23/08:07am 33.0 23.9 -9.5 6 18.2 N 32 50 17 27 1015.8 - 0.0
23/08:00am 33.3 24.7 -7.5 7 18.1 NNE 30 41 16 22 1015.8 - 0.0
23/07:30am 31.4 24.1 -6.3 8 16.8 NNE 24 35 13 19 1015.8 - 0.0
23/07:00am 32.0 25.1 -6.0 8 17.1 NNE 22 35 12 19 1015.4 - 0.0
23/06:30am 30.3 26.8 -1.7 12 15.3 E 7 9 4 5 1015.3 1011.9 0.0
23/06:00am 28.3 24.5 -1.1 14 14.0 E 9 13 5 7 1015.2 - 0.0
23/05:30am 26.7 23.0 -0.3 17 12.9 E 9 11 5 6 1015.1 - 0.0
23/05:00am 27.0 23.3 0.0 17 13.0 NE 9 13 5 7 1014.8 - 0.0
23/04:30am 27.3 24.1 -0.5 16 13.3 ESE 6 11 3 6 1014.7 - 0.0
23/04:00am 27.5 22.0 -1.8 14 13.7 E 17 20 9 11 1014.5 - 0.0
23/03:30am 26.2 20.4 -1.5 16 12.9 E 19 22 10 12 1014.2 1010.8 0.0
23/03:00am 26.3 20.5 -1.2 16 12.9 E 19 22 10 12 1014.2 - 0.0
23/02:30am 26.6 21.1 -1.8 15 13.2 E 17 22 9 12 1014.2 - 0.0
23/02:00am 27.0 21.0 -1.7 15 13.4 E 20 26 11 14 1014.3 - 0.0
23/01:30am 27.7 21.3 -1.7 14 13.8 E 22 30 12 16 1014.5 - 0.0
23/01:00am 28.2 22.2 -1.8 14 14.1 E 20 28 11 15 1014.9 - 0.0
23/12:30am 28.9 22.8 -2.2 13 14.6 ESE 20 26 11 14 1015.2 1011.8 0.0
23/12:00am 29.2 23.3 -1.9 13 14.7 E 19 26 10 14 1015.5 - 0.0
 
Date/Time
WST
Temp
°C
App
Temp
°C
Dew
Point
Rel
Hum
%
Delta-T
°C
Wind Press
QNH
hPa
Press
MSL
hPa
Rain
since 9 am
mm
Dir
 
Spd
km/h
Gust
km/h
Spd
kts
Gust
kts
22/11:30pm 29.1 23.7 -1.7 13 14.6 E 17 22 9 12 1015.7 - 0.0
22/11:00pm 29.7 24.2 -1.9 13 15.0 ESE 17 24 9 13 1016.0 - 0.0
22/10:30pm 29.6 25.4 -0.9 14 14.7 SE 11 15 6 8 1016.1 - 0.0
22/10:00pm 30.2 25.6 -1.1 13 15.1 ESE 13 17 7 9 1016.1 - 0.0
22/09:30pm 30.9 26.7 -1.0 12 15.5 ESE 11 17 6 9 1016.2 1012.8 0.0
22/09:00pm 30.9 27.2 -0.1 13 15.3 SE 9 13 5 7 1016.4 - 0.0
22/08:30pm 31.1 27.5 0.8 14 15.2 SE 9 11 5 6 1016.3 - 0.0
22/08:00pm 30.6 26.4 -0.9 13 15.3 SE 11 13 6 7 1016.2 - 0.0
22/07:30pm 32.8 29.4 -0.9 11 16.6 ESE 7 7 4 4 1015.9 - 0.0
22/07:00pm 32.9 29.6 -0.1 12 16.5 ENE 7 9 4 5 1015.7 - 0.0
22/06:30pm 33.8 30.8 0.5 12 16.9 SSE 6 7 3 4 1015.5 1012.2 0.0
22/06:00pm 33.9 30.6 0.3 12 17.0 S 7 9 4 5 1015.3 - 0.0
22/05:30pm 34.8 31.4 -0.3 11 17.7 SSE 7 9 4 5 1015.0 - 0.0
22/05:00pm 35.7 32.5 -0.5 10 18.3 SSE 6 7 3 4 1014.7 - 0.0
22/04:30pm 36.2 32.0 -4.1 7 19.3 ESE 9 13 5 7 1014.5 - 0.0
22/04:00pm 36.9 33.5 -0.8 9 19.1 SSW 7 11 4 6 1014.4 - 0.0
22/03:30pm 37.8 34.0 -6.0 6 20.6 SSW 6 13 3 7 1014.4 1011.0 0.0
22/03:00pm 37.1 32.8 -5.0 7 20.0 ESE 9 15 5 8 1014.5 - 0.0
22/02:30pm 37.0 33.9 0.4 10 18.9 N 6 13 3 7 1014.6 - 0.0
22/02:00pm 36.8 32.6 -1.1 9 19.1 N 11 22 6 12 1014.9 - 0.0
22/01:30pm 38.7 33.1 -6.4 5 21.2 NW 15 24 8 13 1015.0 - 0.0
22/01:00pm 37.9 33.2 -5.1 6 20.5 SSE 11 20 6 11 1015.5 - 0.0
22/12:30pm 36.8 32.6 -4.3 7 19.7 SE 9 17 5 9 1015.9 1012.5 0.0
22/12:00pm 36.4 31.0 -4.6 7 19.5 SE 15 24 8 13 1016.4 - 0.0
22/11:30am 36.9 31.7 -5.8 6 20.0 S 13 22 7 12 1016.8 - 0.0
22/11:00am 36.5 31.9 -4.3 7 19.5 NE 11 20 6 11 1017.2 - 0.0
22/10:30am 36.2 31.0 -3.1 8 19.1 ENE 15 30 8 16 1017.8 - 0.0
22/10:00am 36.1 29.9 -4.6 7 19.3 E 19 28 10 15 1018.1 - 0.0
22/09:30am 35.0 28.7 -3.8 8 18.5 E 20 28 11 15 1018.4 1015.0 0.0
22/09:00am 34.1 27.4 -4.1 8 18.0 E 22 35 12 19 1018.8 - 0.0
22/08:30am 32.3 24.3 -2.4 10 16.6 E 30 43 16 23 1018.9 - 0.0
22/08:00am 30.6 22.1 -1.9 12 15.5 E 33 46 18 25 1018.9 - 0.0
22/07:30am 29.4 21.1 -0.6 14 14.5 ESE 33 41 18 22 1019.0 - 0.0
22/07:00am 27.3 19.9 -0.6 16 13.3 ESE 28 35 15 19 1019.0 - 0.0
22/06:30am 25.2 18.9 -1.0 17 12.2 ESE 22 32 12 17 1018.9 1015.6 0.0
22/06:00am 23.5 17.5 -1.2 19 11.3 ESE 20 26 11 14 1018.8 - 0.0
22/05:30am 22.7 16.9 -1.3 20 10.9 ESE 19 24 10 13 1018.6 - 0.0
22/05:00am 22.2 16.2 -1.2 21 10.6 ESE 20 26 11 14 1018.3 - 0.0
22/04:30am 22.3 16.5 -1.8 20 10.8 ESE 19 24 10 13 1017.9 - 0.0
22/04:00am 22.5 16.7 -1.7 20 10.9 ESE 19 24 10 13 1017.7 - 0.0
22/03:30am 22.7 16.9 -1.7 19 11.0 ESE 19 22 10 12 1017.6 1014.2 0.0
22/03:00am 22.9 17.5 -1.2 20 11.0 ESE 17 22 9 12 1017.5 - 0.0
22/02:30am 23.1 17.7 -1.6 19 11.2 ESE 17 20 9 11 1017.5 - 0.0
22/02:00am 23.8 18.4 -1.7 18 11.6 ESE 17 20 9 11 1017.5 - 0.0
22/01:30am 24.1 19.5 -1.4 18 11.7 ESE 13 17 7 9 1017.6 - 0.0
22/01:00am 25.3 20.2 -1.6 17 12.4 SE 15 20 8 11 1017.6 - 0.0
22/12:30am 25.1 20.5 -1.2 17 12.2 SE 13 17 7 9 1017.7 1014.3 0.0
22/12:00am 24.9 20.8 0.0 19 11.8 ESE 11 15 6 8 1018.0 - 0.0
 
Date/Time
WST
Temp
°C
App
Temp
°C
Dew
Point
Rel
Hum
%
Delta-T
°C
Wind Press
QNH
hPa
Press
MSL
hPa
Rain
since 9 am
mm
Dir
 
Spd
km/h
Gust
km/h
Spd
kts
Gust
kts
21/11:30pm 24.7 21.2 1.0 21 11.4 SSE 9 13 5 7 1018.3 - 0.0
21/11:00pm 25.9 22.5 1.7 20 11.9 SE 9 11 5 6 1018.6 - 0.0
21/10:30pm 27.3 23.3 0.6 17 13.0 SE 11 13 6 7 1018.7 - 0.0
21/10:00pm 28.9 23.2 -1.0 14 14.3 SSE 19 26 10 14 1018.9 - 0.0
21/09:30pm 29.4 24.0 -1.0 14 14.6 SSE 17 20 9 11 1018.9 1015.6 0.0
21/09:00pm 29.8 24.4 -1.3 13 14.9 S 17 24 9 13 1018.8 - 0.0
21/08:30pm 30.2 24.8 -1.1 13 15.1 S 17 20 9 11 1018.8 - 0.0
21/08:00pm 30.2 25.2 -1.1 13 15.1 S 15 20 8 11 1018.5 - 0.0
21/07:30pm 30.5 25.9 -0.8 13 15.2 S 13 17 7 9 1018.3 - 0.0
21/07:00pm 31.9 26.7 -2.5 11 16.4 SSW 15 20 8 11 1018.0 - 0.0
21/06:30pm 32.4 27.6 -2.5 10 16.7 S 13 17 7 9 1017.6 1014.2 0.0
21/06:00pm 33.4 28.5 -3.0 9 17.4 S 13 19 7 10 1017.0 - 0.0
21/05:30pm 34.4 29.9 -3.6 8 18.1 SSW 11 15 6 8 1016.6 - 0.0
21/05:00pm 35.8 30.4 -4.4 7 19.1 SW 15 22 8 12 1016.3 - 0.0
21/04:30pm 36.4 30.6 -4.6 7 19.5 SSW 17 22 9 12 1016.0 - 0.0
21/04:00pm 36.7 30.7 -6.6 6 20.0 SW 17 24 9 13 1015.8 - 0.0
21/03:30pm 36.7 32.5 -3.5 7 19.5 S 9 13 5 7 1015.8 1012.4 0.0
21/03:00pm 37.4 32.6 -6.4 6 20.4 SW 11 20 6 11 1015.9 - 0.0

Other Formats:

Comma delimited format used in spreadsheet applications
http://www.bom.gov.au/fwo/IDW60801/IDW60801.94461.axf

JavaScript Object Notation format (JSON) in row-major order
http://www.bom.gov.au/fwo/IDW60801/IDW60801.94461.json